INTELSAT 1R (IS-1R) (26608 NORAD) Tracking and Keplerian Element Data

This shows tracking and keplerian element data for the satellite.

Feedback or suggestion? Click here.




ElementValue
Catalog26608
NameINTELSAT 1R (IS-1R)
Epoch Orbit6617
Epoch Day349.84798157
Epoch Year2018
RAAN90.458
Inclination1.457
Eccentricity0.0002135
Argument of Perigee137.1908
Mean Anonmoly319.1901
Mean Motion1.00271308
Decay Rate-1.24E-06
L11 26608U 00072A 18349.84798157 -.00000124 00000-0 00000+0 0 9992
L22 26608 1.4570 90.4580 0002135 137.1908 319.1901 1.00271308 66173

Live tracking and technical data element details for INTELSAT 1R (IS-1R) (NORAD 26608). INTELSAT 1R (IS-1R) can be tracked NOW for your location showing map with azimuth and elevation plus other details from your city location.

Track the satellite on the map from your city or location and see movement details for azimuth, elevation, latitude, longitude, range, height, and movement on the map or in text.







IsCatalogInMostPopularTable: catalog: 26608, numindb: 66
Update: records affected: 1



GetName: 26608 INTELSAT 1R (IS-1R)

Hit Count: updated at: Sun, 16 Dec 2018 10:57:52 GMT